Regional Weather Roundup
Issued by NWS

Home | Current Version | Previous Version | Text Only | Print | Product List | Glossary On
Versions: 1 2 3 4 5 6 7 8 9 10 11 12 13 14 15 16 17 18 19 20 21 22 23 24 25 26 27 28 29 30 31 32 33 34 35 36 37 38 39 40 41 42 43 44 45 46 47 48 49 50
000
ASUS44 KMEG 200210
RWRTN
TENNESSEE HOURLY STATE WEATHER ROUNDUP
NATIONAL WEATHER SERVICE MEMPHIS TN
900 PM CDT FRI SEP 19 2014

TNZ002-004-019-021-049-052-054-088>092-200300-
WEST TENNESSEE

CITY           SKY/WX    TMP DP  RH WIND       PRES   REMARKS
MEMPHIS INTL   PTCLDY    76  66  71 CALM      30.01R
NWS MEMPHIS      N/A     71 N/A N/A MISG        N/A
JACKSON        PTCLDY    68  66  94 CALM      30.03R FOG
DYERSBURG      CLEAR     70  57  64 CALM      30.03R
UNION CITY     CLEAR     64  64 100 CALM      30.02R
PARIS          CLEAR     63  61  94 CALM      30.04R
HUNTINGDON     CLEAR     66  63  90 CALM      30.03R
LEXINGTON      CLEAR     70  66  88 CALM      30.03R
SAVANNAH       CLEAR     68  68 100 CALM      30.04R
$$

TNZ008-025-027-028-033-062-065-066-200300-
NORTH MIDDLE TENNESSEE

CITY           SKY/WX    TMP DP  RH WIND       PRES   REMARKS
NASHVILLE      PTCLDY    74  64  71 CALM      30.05R
DICKSON        CLEAR     70  64  83 CALM      30.04S
PORTLAND       CLEAR     66  63  88 CALM      30.05R
CLARKSVILLE    PTCLDY    71  62  73 CALM      30.03R
LEBANON        PTCLDY    70  65  84 CALM      30.04R
SMYRNA         CLEAR     68  65  90 CALM      30.05R
MURFREESBORO   CLEAR     73  66  78 CALM      30.05R
COOKEVILLE     CLEAR     68  64  88 SE3       30.09R
LIVINGSTON     CLEAR     67  60  78 CALM      30.10
GALLATIN       CLEAR     72  66  81 CALM      30.06R
CROSSVILLE     CLEAR     66  61  84 CALM      30.14R
$$

TNZ061-075-076-078-094-096-097-200300-
SOUTH MIDDLE TENNESSEE

CITY           SKY/WX    TMP DP  RH WIND       PRES   REMARKS
LEWISBURG      CLEAR     68  66  93 CALM      30.05R
FAYETTEVILLE   CLEAR     70  64  83 S5        30.08R
TULLAHOMA      CLEAR     73  64  73 SE6       30.10R
WINCHESTER     CLEAR     70  64  83 E7        30.09R
MCMINNVILLE    PTCLDY    72  70  94 CALM      30.09R
COLUMBIA       PTCLDY    72  72 100 CALM      30.04R
SHELBYVILLE    CLEAR     73  66  78 SE5       30.07R
$$

TNZ017-018-042-046-047-200300-
NORTHEAST TENNESSEE

CITY           SKY/WX    TMP DP  RH WIND       PRES   REMARKS
TRI CITIES     CLEAR     67  54  63 E5        30.19R
ELIZABETHTON   CLEAR     64  54  68 E6        30.21R
$$

TNZ012-013-036-069-073-074-200300-
CENTRAL EAST TENNESSEE

CITY           SKY/WX    TMP DP  RH WIND       PRES   REMARKS
KNOXVILLE      CLOUDY    73  63  70 S7        30.11R
OAK RIDGE      MOCLDY    74  66  76 CALM      30.12R
GATLINBURG     CLEAR     72  57  60 SE6       30.12R
MORRISTOWN     CLEAR     70  59  68 SE6       30.15R
$$

TNZ083-085-099-200300-
SOUTHEAST TENNESSEE

CITY           SKY/WX    TMP DP  RH WIND       PRES   REMARKS
CHATTANOOGA    MOCLDY    76  61  59 SE7       30.10R
$$

SKY/WX REPORTED AS FAIR MEANS FEW OR NO CLOUDS BELOW
12 THOUSAND FEET.



USA.gov is the U.S. government's official web portal to all federal, state and local government web resources and services.